SCP
0 0 0 0 0 0 0 0 0 0 0 0 0 0 0 0 0 0 0 0 0 0 0 0 0 0 0 0 0 0 0 -0 0 0 0 0 0 0 0 0 0 0 0 0 0 0 0 0 0 0 0 0 0 0
0 0 0 0 0 0 0 0 0 0 0 0 0 0 0 0 0 0 0 0 0 0 0 0 0 0 0 0 0 0 0 0 -0 0 0 0 0 0 0 0 0 0 0 0 0 0 0 0 0 0 0 0 0 0
0 0 0 0 0 0 0 0 0 0 0 0 0 0 0 0 0 0 0 0 0 0 0 0 0 -0 0 0 0 0 0 0 0 0 0 0 0 0 0 0 0 0 0 0 0 0 0 0 0 0 0 0 0 0
0 0 0 0 0 0 0 0 0 0 0 0 0 0 0 0 0 0 0 0 0 0 0 0 0 -0 -0 0 0 0 0 0 0 -0 0 -0 0 0 0 0 0 0 0 0 0 0 0 0 0 0 0 0 0 0
0 0 0 0 0 0 0 0 0 0 0 0 0 0 0 0 0 0 0 0 0 0 0 0 0 -0 0 -0 0 0 0 0 0 -0 -0 -0 -0 0 0 0 0 0 0 0 0 0 0 0 0 0 0 0 0 0
0 0 0 0 0 0 0 0 0 0 0 0 0 -0 -0 0 0 0 0 0 0 0 0 0 0 0 0 0 0 0 0 0 0 0 -0 -0 -0 0 -0 -0 0 0 0 0 0 0 0 0 0 0 0 0 0 0
0 0 0 0 0 0 0 0 0 0 0 0 0 -0 -0 -0 0 0 0 0 0 0 0 0 0 0 0 -0 0 0 0 0 0 0 0 0 -0 -0 -0 -0 0 0 0 0 0 0 0 0 0 0 0 0 0 0
0 0 0 0 0 0 0 0 0 0 0 0 0 -0 -0 -0 -0 0 0 0 0 0 0 0 0 0 -0 -0 -0 0 0 0 0 0 0 0 0 0 -0 0 0 0 0 0 0 0 0 0 0 0 0 0 0 0
0 0 0 0 0 0 0 0 0 0 0 -0 -0 -0 0 0 0 0 0 0 0 0 0 0 0 0 0 -0 0 -0 0 0 0 0 0 0 0 0 0 0 0 0 0 0 0 0 0 0 0 0 0 0 -0 -0
0 0 0 0 0 0 0 0 0 0 -0 0 0 0 0 0 0 -0 0 0 0 0 0 0 0 0 0 0 0 0 -0 -0 -0 0 0 0 0 0 0 0 0 0 0 0 0 0 -0 -0 -0 -0 -0 -0 -0 -0
0 0 0 0 0 0 0 0 0 0 0 0 0 0 0 0 0 0 0 -0 -0 0 0 0 0 0 0 0 0 0 0 0 0 0 -0 -0 0 0 0 0 0 -0 -0 -0 -0 -0 0 0 0 0 -0 0 0 0
-0 0 0 0 0 0 0 0 0 0 0 0 0 0 0 0 0 0 0 -0 0 -0 0 -0 0 0 0 0 0 0 0 0 0 0 -0 0 0 0 0 0 0 0 -0 -0 -0 -0 0 0 0 0 0 0 0 0
0 0 0 0 0 0 0 0 0 0 0 0 0 0 0 0 0 0 0 0 -0 0 0 -0 -0 -0 -0 -0 -0 -0 -0 0 -0 -0 0 0 0 0 0 0 0 0 0 -0 -0 -0 0 0 0 0 0 0 0 0
0 0 0 0 0 0 0 0 0 0 0 0 0 0 0 0 0 0 0 0 0 0 0 0 0 0 0 -0 -0 0 -0 -0 -0 -0 0 -0 -0 0 0 0 0 0 0 0 0 0 0 0 0 0 0 0 0 0
-0 0 0 0 0 0 0 0 0 0 0 0 0 0 0 0 0 0 0 0 0 0 0 0 0 0 0 0 0 0 0 -0 0 -0 -0 0 0 0 0 0 0 0 0 0 0 0 0 0 0 0 0 0 0 0
0 0 0 0 0 0 0 0 0 0 0 0 0 0 0 0 0 0 0 0 0 0 0 0 0 0 0 0 0 0 0 0 0 0 0 0 0 0 0 0 0 0 0 0 0 0 0 0 0 0 0 0 0 0
0 0 0 0 0 0 0 0 0 0 0 0 0 0 0 0 0 0 0 0 0 0 0 0 0 0 0 0 0 0 0 0 0 0 0 0 0 0 0 0 0 0 0 0 0 0 0 0 0 0 0 0 0 0
0 0 0 0 0 0 0 0 0 0 0 0 0 0 0 0 0 0 0 0 0 0 0 0 0 0 0 0 0 0 0 0 0 0 0 0 0 -0 -0 0 0 0 0 0 0 0 0 0 0 0 0 0 0 0
0 0 -0 0 0 0 0 0 0 0 0 0 0 0 0 0 0 0 0 0 0 0 0 0 0 0 0 0 0 0 0 0 0 0 0 0 0 0 0 0 0 0 0 0 0 0 0 0 0 0 0 0 0 0
-0 -0 -0 0 0 0 0 0 0 0 0 0 0 0 0 0 0 0 0 0 0 0 0 0 0 0 0 0 0 0 0 0 0 0 0 0 0 0 0 0 0 0 0 0 0 0 0 0 0 0 0 0 0 0
0 0 0 0 0 0 0 0 0 0 0 0 0 0 0 0 0 0 0 0 0 0 0 0 0 0 0 0 0 0 0 0 0 0 0 0 0 0 0 0 0 0 0 0 0 0 0 0 0 0 0 0 0 0
0 0 0 0 0 0 0 0 0 0 0 0 0 0 0 0 0 0 0 0 0 0 0 0 0 0 0 0 0 0 0 0 0 0 0 0 0 0 0 0 0 0 0 0 0 0 0 0 0 0 0 0 0 0
0 0 0 0 0 0 0 0 0 0 0 0 0 0 0 0 0 0 0 0 0 0 0 0 0 0 0 0 0 0 0 0 0 0 0 0 0 0 0 0 0 0 0 0 0 0 0 0 0 0 0 0 0 0
0 0 0 0 0 0 0 0 0 0 0 0 0 0 0 0 0 0 0 0 0 0 0 0 0 0 0 0 0 0 0 0 0 0 0 0 0 0 0 0 0 0 0 0 0 0 0 0 0 0 0 0 0 0
0 0 0 0 0 0 0 0 0 0 0 0 0 0 0 0 0 0 0 0 0 0 0 0 0 0 0 0 0 0 0 0 0 0 0 0 0 0 0 0 0 0 0 0 0 0 0 0 0 0 0 0 0 0
0 0 0 0 0 0 0 0 0 0 0 0 0 0 0 0 0 0 0 0 0 0 0 0 0 0 0 0 0 0 0 0 0 0 0 0 0 0 0 0 0 0 0 0 0 0 0 0 0 0 0 0 0 0
0 0 0 0 0 0 0 0 0 0 0 0 0 0 0 0 0 0 0 0 0 0 0 0 0 0 0 0 0 0 0 0 0 0 0 0 0 0 0 0 0 0 0 0 0 0 0 0 0 0 0 0 0 0
0 0 0 0 0 0 0 0 0 0 0 0 0 0 0 0 0 0 0 0 0 0 0 0 0 0 0 0 0 0 0 0 0 0 0 0 0 0 0 0 0 0 0 0 0 0 0 0 0 0 0 0 0 0
0 0 0 0 0 0 0 0 0 0 0 0 0 0 0 0 0 0 0 0 0 0 0 0 0 0 0 0 0 0 0 0 0 0 0 0 0 0 0 0 0 0 0 0 0 0 0 0 0 0 0 0 0 0
0 0 0 0 0 0 0 0 0 0 0 0 0 0 0 0 0 0 0 0 0 0 0 0 0 0 0 0 0 0 0 0 0 0 0 0 0 0 0 0 0 0 0 0 0 0 0 0 0 0 0 0 0 0
0 0 0 0 0 0 0 0 0 0 0 0 0 0 0 0 0 0 0 0 0 0 0 0 0 0 0 0 0 0 0 0 0 0 0 0 0 0 0 0 0 0 0 0 0 0 0 0 0 0 0 0 0 0
0 0 0 0 0 0 0 0 0 0 0 0 0 0 0 0 0 0 0 0 0 0 0 0 0 0 0 0 0 0 0 0 0 0 0 0 0 0 0 0 0 0 0 0 0 0 0 0 0 0 0 0 0 0
0 0 0 0 0 0 0 0 0 0 0 0 0 0 0 0 0 0 0 0 0 0 0 0 0 0 0 0 0 0 0 0 0 0 0 0 0 -0 0 0 0 0 0 0 0 0 0 0 0 0 0 0 0 0
Wind_Speed_500mb
65 61 57 51 44 36 31 24 20 18 14 15 14 14 14 13 14 15 14 14 9 2 7 2 3 6 9 10 7 20 13 14 14 11 5 1 5 3 6 3 5 7 8 4 5 8 7 7 5 13 3 3 17 29
64 61 58 53 50 42 38 29 21 19 17 15 13 15 18 15 16 16 12 9 6 3 5 8 10 9 8 11 13 17 2 6 8 3 3 4 5 1 3 4 2 1 6 7 8 8 2 13 2 1 13 27 27 38
62 62 57 54 51 49 45 34 28 24 22 19 18 17 20 16 17 10 8 10 6 8 6 3 2 5 5 6 11 8 5 10 7 9 0 4 11 1 4 3 2 3 4 5 5 2 3 12 6 14 24 27 31 34
63 58 57 55 51 50 44 37 31 27 26 23 25 22 23 16 7 4 6 14 6 7 7 2 3 2 4 1 4 7 7 8 9 9 6 4 6 7 1 4 3 4 3 5 3 5 3 11 11 18 20 24 27 24
63 57 54 53 51 48 43 38 32 28 26 23 23 19 18 9 8 7 8 10 9 4 9 5 5 8 9 13 8 8 11 7 7 6 8 6 4 4 3 3 5 14 10 6 6 7 3 7 26 26 27 24 19 15
61 58 54 52 49 47 44 39 35 31 25 19 14 14 11 13 11 8 5 9 11 12 7 4 2 4 13 11 5 6 5 8 8 9 7 5 6 4 3 4 8 15 8 5 4 12 13 18 29 26 25 20 19 19
61 60 55 49 44 43 42 37 34 28 25 17 14 11 15 18 16 9 3 4 15 11 6 6 6 1 6 2 6 10 12 9 8 5 9 5 1 4 3 3 2 9 17 18 8 13 12 21 12 19 14 9 12 15
63 61 57 50 45 39 36 34 29 26 19 16 16 18 11 9 14 10 9 10 15 5 5 7 3 3 1 1 3 8 6 7 13 7 6 10 11 5 6 20 22 16 13 10 14 26 10 11 13 11 10 12 17 20
64 59 59 55 44 42 35 33 32 24 23 25 17 13 8 8 7 7 10 13 11 3 8 7 9 6 5 2 5 5 9 7 8 8 7 8 5 6 14 15 5 1 4 6 9 20 30 28 22 20 21 24 26 28
67 62 59 54 50 45 42 37 29 32 37 22 20 9 7 6 7 16 7 8 7 3 4 8 10 5 6 3 6 4 9 3 2 5 17 5 7 27 30 27 28 18 3 6 5 10 16 13 11 11 14 16 18 13
66 62 60 55 50 46 43 36 41 47 34 28 14 8 9 23 11 4 3 3 3 4 3 8 7 9 7 5 5 3 4 4 4 6 4 5 7 11 2 8 11 17 31 19 14 9 16 14 10 6 9 13 15 16
65 63 58 53 53 51 41 43 52 46 25 17 13 20 17 6 4 7 3 6 2 8 11 11 10 8 10 7 8 4 6 5 5 12 6 6 8 4 13 5 5 15 24 23 21 15 6 5 6 8 9 9 13 17
65 60 60 60 59 54 40 50 51 34 23 23 7 9 7 1 9 10 8 7 4 18 21 18 8 8 8 5 13 6 8 5 4 6 6 9 17 13 9 16 25 25 25 20 12 4 1 5 8 11 14 19 23 26
67 63 62 60 57 52 47 58 53 39 17 7 10 4 7 4 8 9 8 7 8 8 41 29 16 6 6 8 2 9 4 2 6 5 9 6 7 1 14 25 33 35 32 29 26 22 18 14 16 22 29 36 42 46
68 66 65 60 58 52 60 49 54 40 8 5 7 7 8 7 6 9 8 11 11 41 39 18 14 5 6 8 5 7 7 3 9 9 7 4 7 12 23 29 35 33 27 21 17 20 28 31 32 32 36 41 47 52
70 65 70 66 60 59 50 51 53 33 7 7 8 5 5 5 5 15 19 12 37 49 18 6 8 7 2 8 6 11 11 10 7 8 13 18 22 25 30 28 21 14 8 15 30 35 34 37 41 45 48 48 53 58
80 62 79 72 67 74 60 49 27 14 9 6 5 13 14 1 7 18 24 27 52 29 3 7 6 10 8 5 3 8 9 7 2 22 26 21 19 11 11 12 8 15 27 37 34 36 42 47 51 52 54 54 54 46
87 72 84 82 80 72 56 24 17 10 10 12 6 8 20 5 12 22 22 45 36 17 12 7 16 5 9 7 7 7 10 7 18 17 7 2 4 5 9 15 22 35 37 39 45 47 47 47 48 47 46 41 39 36
87 81 91 92 82 48 15 21 12 8 16 5 10 11 12 8 13 21 26 57 23 15 7 10 6 5 6 12 5 18 18 18 12 9 14 12 15 16 21 28 33 38 42 45 48 48 44 41 40 37 32 30 33 32
79 87 90 81 67 20 12 11 20 8 9 14 12 20 9 8 20 24 49 37 26 9 5 3 9 1 9 21 20 10 5 6 11 18 18 13 23 28 32 37 40 44 47 45 43 41 39 34 31 31 30 29 36 40
81 85 86 87 42 12 10 15 13 11 12 12 19 18 11 24 20 29 27 25 13 7 7 6 12 21 18 2 2 4 10 20 19 28 35 38 34 36 36 40 44 42 42 45 46 37 34 33 32 31 32 35 41 45
87 103 79 65 20 17 9 15 8 19 14 16 25 13 12 9 14 20 25 14 9 3 5 8 12 6 2 13 15 16 22 24 22 24 32 39 44 39 32 31 33 33 31 38 38 36 28 29 32 35 38 41 47 52
106 75 58 18 11 15 11 30 9 11 7 15 16 8 4 5 13 32 10 9 5 9 11 9 10 12 12 13 14 17 19 22 24 26 28 28 30 33 35 35 34 33 23 23 27 28 30 33 37 42 47 52 56 57
76 30 15 23 15 10 23 6 11 12 12 6 6 7 4 8 23 4 4 3 11 12 7 3 3 2 4 6 12 17 21 23 25 27 27 29 25 24 26 25 24 27 28 28 29 30 33 37 41 46 51 58 62 67
20 19 17 10 13 15 8 7 5 5 6 5 7 5 6 11 4 5 6 8 11 11 5 4 9 10 11 18 21 22 24 22 19 17 19 18 17 19 24 24 21 22 25 31 36 41 46 50 55 61 65 68 71 73
10 18 19 13 13 12 12 11 12 12 8 7 4 11 9 6 7 7 3 3 7 6 7 11 13 14 17 18 16 15 17 20 20 21 21 25 25 23 18 17 21 24 35 44 52 58 62 66 68 70 73 74 74 76
13 7 11 14 22 27 13 13 13 8 9 12 10 11 7 10 13 4 3 1 3 6 8 8 11 14 14 14 14 16 18 19 20 17 18 21 22 24 29 37 44 47 50 55 58 61 66 69 70 70 72 68 62 61
9 19 15 30 18 9 11 7 10 12 9 20 28 10 18 8 4 5 3 1 1 1 2 3 6 10 13 14 15 14 13 15 18 19 19 21 24 29 32 37 47 50 52 54 58 59 60 63 64 65 66 68 68 62
9 24 38 8 13 10 6 8 9 10 24 36 9 7 11 10 11 11 10 8 8 5 3 2 3 6 9 12 13 15 15 15 16 18 23 29 30 31 39 43 46 48 50 50 44 45 47 51 55 60 61 61 61 60
8 19 13 9 8 6 6 4 17 36 27 29 25 24 20 21 17 16 12 10 6 5 6 8 9 10 11 12 15 21 23 25 30 35 40 43 47 49 52 53 52 51 51 52 53 52 46 47 47 46 47 49 51 53
14 9 14 14 10 9 32 40 41 41 27 22 22 23 28 22 22 20 14 10 10 11 11 13 17 20 20 21 23 22 23 30 35 37 41 47 49 50 51 52 52 52 52 53 55 56 56 55 53 52 51 50 47 46
9 9 13 9 10 19 15 7 10 13 12 12 13 13 16 12 9 8 12 13 9 12 18 21 21 20 20 25 26 30 34 36 38 39 40 42 44 45 46 46 47 47 48 47 47 48 48 49 49 48 49 47 44 43
12 20 23 19 13 11 10 12 10 11 16 11 11 10 9 9 9 7 10 15 15 19 22 23 21 17 21 19 22 27 29 32 34 35 37 39 41 44 45 45 46 46 46 44 43 44 45 45 45 44 43 42 40 36
Wind_Direction_500mb
201 202 201 204 200 202 216 231 243 247 249 233 231 240 250 267 283 295 302 299 271 248 124 255 318 329 341 346 3 321 328 7 4 46 69 305 63 48 74 341 97 131 125 169 78 69 291 170 101 156 228 101 158 169
200 204 205 207 207 210 222 231 237 242 241 239 231 250 264 273 284 289 275 280 249 258 114 111 100 67 45 15 344 2 28 340 26 347 49 111 62 50 135 109 275 79 173 175 169 201 322 174 307 246 146 135 130 134
199 203 206 206 207 211 227 233 240 235 238 246 253 262 274 286 299 278 239 229 204 121 137 174 134 93 31 5 3 344 13 352 1 3 13 172 81 10 63 311 180 315 209 89 60 228 241 177 127 130 139 132 124 120
199 201 205 208 208 214 225 231 235 234 240 250 260 266 271 277 277 222 209 181 233 126 114 243 202 36 30 18 24 339 337 349 345 4 42 71 83 16 323 255 169 197 123 169 292 312 348 213 149 134 131 139 141 144
198 196 199 207 210 214 221 227 232 235 242 255 254 259 255 222 196 209 206 217 217 227 147 165 153 41 78 111 70 19 8 348 343 40 30 59 23 7 335 14 281 185 180 144 199 194 164 177 181 170 160 163 177 189
194 195 196 203 209 213 219 223 228 234 244 225 230 245 206 185 180 183 229 216 198 170 137 143 161 61 104 97 54 13 340 12 42 39 71 67 56 21 80 238 263 199 168 92 105 141 118 129 174 186 183 188 213 250
194 196 196 197 202 204 214 219 215 216 220 217 213 212 198 197 198 219 228 177 172 170 160 82 354 71 94 107 5 26 48 59 62 58 40 6 44 356 141 234 284 153 195 212 172 143 135 144 149 144 152 187 235 237
194 195 193 193 197 192 186 188 182 193 200 204 183 196 221 206 208 236 228 168 167 172 154 109 335 1 222 2 72 14 19 38 38 46 359 19 329 355 262 251 263 243 280 266 212 213 185 181 179 211 235 243 254 264
192 193 191 189 184 179 179 185 189 185 171 184 193 185 159 179 201 228 192 173 183 213 143 103 134 206 174 63 32 37 17 39 7 51 29 350 315 237 229 251 22 15 154 118 191 206 218 223 224 242 266 276 270 274
191 192 191 188 184 178 182 190 178 161 174 173 154 162 192 162 182 147 148 176 191 192 115 94 127 119 137 97 60 46 27 54 47 296 328 75 268 267 260 270 257 258 183 208 176 203 207 202 215 232 250 251 263 278
189 189 190 188 182 176 187 174 159 173 168 161 166 153 156 142 145 176 198 83 339 46 90 120 142 144 161 118 157 56 181 15 78 279 95 324 285 258 320 312 276 235 226 221 188 121 140 149 161 206 267 288 294 295
188 188 188 184 179 177 185 166 179 178 166 160 147 125 145 178 130 88 281 323 71 218 150 141 134 128 140 142 117 48 124 40 229 333 69 290 253 320 341 6 244 196 169 173 178 187 208 239 270 298 309 306 308 318
184 183 184 180 177 179 183 171 190 175 154 142 152 145 150 183 41 142 220 286 300 178 174 158 140 137 128 123 80 84 79 200 314 45 231 235 289 332 57 79 96 134 155 165 175 188 75 57 44 14 352 329 319 314
183 180 180 176 175 179 175 185 188 179 177 202 171 180 155 269 245 189 188 195 170 169 156 143 118 122 115 68 85 87 235 63 44 23 242 255 308 112 122 111 102 102 103 101 93 78 58 30 356 333 318 307 301 296
179 178 175 174 175 177 182 184 182 183 211 233 193 217 205 202 192 178 175 146 140 150 148 123 91 126 30 90 47 112 42 294 200 230 233 357 70 114 128 117 112 105 94 78 47 3 337 324 315 309 301 300 302 304
174 173 179 174 173 182 177 173 180 198 266 235 230 117 157 140 194 176 179 164 153 155 156 129 110 65 351 129 96 211 122 214 241 219 130 97 89 107 122 125 117 102 56 346 331 323 317 312 310 309 310 312 307 306
172 171 176 170 168 176 169 171 162 201 239 237 246 216 201 138 165 165 160 162 161 161 185 121 92 200 113 45 297 194 201 223 131 149 135 106 76 107 169 201 247 293 306 313 311 307 306 307 307 309 307 306 307 314
172 173 168 170 173 167 161 157 179 211 238 240 236 201 194 201 168 165 167 166 161 189 167 186 133 116 171 154 277 240 225 86 111 134 153 256 1 36 329 301 289 297 300 297 296 300 303 301 302 303 304 311 315 322
170 168 171 179 174 154 135 173 196 218 219 208 205 179 169 179 187 177 171 168 164 162 159 158 90 192 225 209 123 111 95 76 58 1 332 317 313 302 296 291 286 284 286 292 298 300 300 302 302 300 307 313 316 327
166 171 176 176 165 156 142 151 181 217 198 188 173 167 159 151 152 159 162 168 167 173 176 170 209 202 84 111 108 99 24 357 331 319 313 298 294 299 296 295 292 294 299 302 304 307 307 304 301 305 310 317 329 335
164 172 172 169 158 136 155 168 171 179 163 160 158 147 121 131 124 156 161 163 185 231 248 184 124 139 145 149 44 345 309 315 314 308 302 299 301 296 297 295 300 304 309 311 311 313 309 303 303 303 313 328 325 321
159 168 162 168 169 172 170 181 174 153 153 142 147 143 134 138 139 155 168 200 230 262 213 126 127 136 257 303 303 296 296 291 289 288 289 294 300 305 305 304 303 305 310 302 306 311 310 304 304 306 309 309 306 306
160 159 161 147 148 166 157 159 141 133 118 163 143 110 79 126 157 149 188 222 193 192 194 214 260 279 278 279 291 297 304 307 303 299 296 295 296 301 305 306 307 307 308 301 304 307 307 304 304 305 304 304 306 311
155 147 140 162 169 125 143 133 130 114 113 147 148 116 157 129 154 187 228 181 173 176 181 185 139 201 206 259 281 303 307 308 307 304 304 304 306 299 299 303 311 318 324 323 314 310 308 309 310 312 317 319 319 318
136 170 182 156 140 124 117 129 101 100 126 167 119 139 172 147 143 193 222 156 183 196 212 277 316 333 341 329 322 318 317 321 322 313 310 309 311 314 310 309 310 317 319 322 319 320 320 320 318 318 318 317 315 313
178 179 182 142 159 134 164 133 174 156 129 129 105 136 145 157 165 218 143 247 227 248 296 308 315 311 310 315 319 313 316 326 331 331 326 331 341 348 343 319 319 325 323 325 324 321 319 318 317 315 314 314 314 312
180 147 124 124 134 130 100 87 127 116 140 160 167 167 167 168 216 131 187 284 218 236 259 292 311 315 317 322 327 330 337 339 340 338 334 333 336 336 332 328 327 325 323 321 319 317 316 314 313 312 311 311 312 311
139 147 136 143 125 125 121 113 142 173 164 156 142 167 176 190 150 138 138 217 108 183 267 301 313 322 327 325 328 333 335 335 335 337 327 322 326 324 322 318 313 313 313 316 315 315 314 313 313 315 318 319 320 321
106 128 136 76 105 109 112 154 157 129 143 169 124 115 119 95 103 115 113 103 90 91 81 59 350 339 335 333 335 329 320 322 320 316 317 319 317 315 314 317 318 318 317 317 318 319 320 320 321 320 320 321 321 320
120 135 106 77 77 82 19 123 133 142 139 140 122 116 101 101 98 101 96 95 89 59 32 10 359 352 347 346 351 348 349 349 345 344 341 337 335 335 337 336 335 335 334 332 331 330 329 325 326 325 323 323 324 323
113 100 83 71 77 60 113 112 115 118 116 94 102 119 122 125 115 90 79 70 46 29 14 3 357 355 356 355 357 1 -0 351 349 345 340 339 339 338 338 339 339 338 339 339 339 340 338 336 336 335 335 334 334 330
57 66 122 110 120 135 114 115 85 78 79 76 72 89 108 111 101 110 55 43 33 15 8 3 360 3 5 4 3 0 357 353 350 346 343 342 343 342 342 343 345 344 344 345 343 340 340 338 339 339 337 337 337 334
76 79 97 102 117 143 132 108 70 81 61 72 66 73 79 90 109 102 48 16 14 17 12 9 8 12 10 11 9 4 1 356 353 352 351 351 351 352 352 353 354 354 353 350 348 346 346 345 344 343 341 340 340 341
Wind_Speed_850mb
65 61 57 51 44 36 31 24 20 18 14 15 14 14 14 13 14 15 14 14 9 2 7 2 3 6 9 10 7 20 13 14 14 11 5 1 5 3 6 3 5 7 8 4 5 8 7 7 5 13 3 3 17 29
64 61 58 53 50 42 38 29 21 19 17 15 13 15 18 15 16 16 12 9 6 3 5 8 10 9 8 11 13 17 2 6 8 3 3 4 5 1 3 4 2 1 6 7 8 8 2 13 2 1 13 27 27 38
62 62 57 54 51 49 45 34 28 24 22 19 18 17 20 16 17 10 8 10 6 8 6 3 2 5 5 6 11 8 5 10 7 9 0 4 11 1 4 3 2 3 4 5 5 2 3 12 6 14 24 27 31 34
63 58 57 55 51 50 44 37 31 27 26 23 25 22 23 16 7 4 6 14 6 7 7 2 3 2 4 1 4 7 7 8 9 9 6 4 6 7 1 4 3 4 3 5 3 5 3 11 11 18 20 24 27 24
63 57 54 53 51 48 43 38 32 28 26 23 23 19 18 9 8 7 8 10 9 4 9 5 5 8 9 13 8 8 11 7 7 6 8 6 4 4 3 3 5 14 10 6 6 7 3 7 26 26 27 24 19 15
61 58 54 52 49 47 44 39 35 31 25 19 14 14 11 13 11 8 5 9 11 12 7 4 2 4 13 11 5 6 5 8 8 9 7 5 6 4 3 4 8 15 8 5 4 12 13 18 29 26 25 20 19 19
61 60 55 49 44 43 42 37 34 28 25 17 14 11 15 18 16 9 3 4 15 11 6 6 6 1 6 2 6 10 12 9 8 5 9 5 1 4 3 3 2 9 17 18 8 13 12 21 12 19 14 9 12 15
63 61 57 50 45 39 36 34 29 26 19 16 16 18 11 9 14 10 9 10 15 5 5 7 3 3 1 1 3 8 6 7 13 7 6 10 11 5 6 20 22 16 13 10 14 26 10 11 13 11 10 12 17 20
64 59 59 55 44 42 35 33 32 24 23 25 17 13 8 8 7 7 10 13 11 3 8 7 9 6 5 2 5 5 9 7 8 8 7 8 5 6 14 15 5 1 4 6 9 20 30 28 22 20 21 24 26 28
67 62 59 54 50 45 42 37 29 32 37 22 20 9 7 6 7 16 7 8 7 3 4 8 10 5 6 3 6 4 9 3 2 5 17 5 7 27 30 27 28 18 3 6 5 10 16 13 11 11 14 16 18 13
66 62 60 55 50 46 43 36 41 47 34 28 14 8 9 23 11 4 3 3 3 4 3 8 7 9 7 5 5 3 4 4 4 6 4 5 7 11 2 8 11 17 31 19 14 9 16 14 10 6 9 13 15 16
65 63 58 53 53 51 41 43 52 46 25 17 13 20 17 6 4 7 3 6 2 8 11 11 10 8 10 7 8 4 6 5 5 12 6 6 8 4 13 5 5 15 24 23 21 15 6 5 6 8 9 9 13 17
65 60 60 60 59 54 40 50 51 34 23 23 7 9 7 1 9 10 8 7 4 18 21 18 8 8 8 5 13 6 8 5 4 6 6 9 17 13 9 16 25 25 25 20 12 4 1 5 8 11 14 19 23 26
67 63 62 60 57 52 47 58 53 39 17 7 10 4 7 4 8 9 8 7 8 8 41 29 16 6 6 8 2 9 4 2 6 5 9 6 7 1 14 25 33 35 32 29 26 22 18 14 16 22 29 36 42 46
68 66 65 60 58 52 60 49 54 40 8 5 7 7 8 7 6 9 8 11 11 41 39 18 14 5 6 8 5 7 7 3 9 9 7 4 7 12 23 29 35 33 27 21 17 20 28 31 32 32 36 41 47 52
70 65 70 66 60 59 50 51 53 33 7 7 8 5 5 5 5 15 19 12 37 49 18 6 8 7 2 8 6 11 11 10 7 8 13 18 22 25 30 28 21 14 8 15 30 35 34 37 41 45 48 48 53 58
80 62 79 72 67 74 60 49 27 14 9 6 5 13 14 1 7 18 24 27 52 29 3 7 6 10 8 5 3 8 9 7 2 22 26 21 19 11 11 12 8 15 27 37 34 36 42 47 51 52 54 54 54 46
87 72 84 82 80 72 56 24 17 10 10 12 6 8 20 5 12 22 22 45 36 17 12 7 16 5 9 7 7 7 10 7 18 17 7 2 4 5 9 15 22 35 37 39 45 47 47 47 48 47 46 41 39 36
87 81 91 92 82 48 15 21 12 8 16 5 10 11 12 8 13 21 26 57 23 15 7 10 6 5 6 12 5 18 18 18 12 9 14 12 15 16 21 28 33 38 42 45 48 48 44 41 40 37 32 30 33 32
79 87 90 81 67 20 12 11 20 8 9 14 12 20 9 8 20 24 49 37 26 9 5 3 9 1 9 21 20 10 5 6 11 18 18 13 23 28 32 37 40 44 47 45 43 41 39 34 31 31 30 29 36 40
81 85 86 87 42 12 10 15 13 11 12 12 19 18 11 24 20 29 27 25 13 7 7 6 12 21 18 2 2 4 10 20 19 28 35 38 34 36 36 40 44 42 42 45 46 37 34 33 32 31 32 35 41 45
87 103 79 65 20 17 9 15 8 19 14 16 25 13 12 9 14 20 25 14 9 3 5 8 12 6 2 13 15 16 22 24 22 24 32 39 44 39 32 31 33 33 31 38 38 36 28 29 32 35 38 41 47 52
106 75 58 18 11 15 11 30 9 11 7 15 16 8 4 5 13 32 10 9 5 9 11 9 10 12 12 13 14 17 19 22 24 26 28 28 30 33 35 35 34 33 23 23 27 28 30 33 37 42 47 52 56 57
76 30 15 23 15 10 23 6 11 12 12 6 6 7 4 8 23 4 4 3 11 12 7 3 3 2 4 6 12 17 21 23 25 27 27 29 25 24 26 25 24 27 28 28 29 30 33 37 41 46 51 58 62 67
20 19 17 10 13 15 8 7 5 5 6 5 7 5 6 11 4 5 6 8 11 11 5 4 9 10 11 18 21 22 24 22 19 17 19 18 17 19 24 24 21 22 25 31 36 41 46 50 55 61 65 68 71 73
10 18 19 13 13 12 12 11 12 12 8 7 4 11 9 6 7 7 3 3 7 6 7 11 13 14 17 18 16 15 17 20 20 21 21 25 25 23 18 17 21 24 35 44 52 58 62 66 68 70 73 74 74 76
13 7 11 14 22 27 13 13 13 8 9 12 10 11 7 10 13 4 3 1 3 6 8 8 11 14 14 14 14 16 18 19 20 17 18 21 22 24 29 37 44 47 50 55 58 61 66 69 70 70 72 68 62 61
9 19 15 30 18 9 11 7 10 12 9 20 28 10 18 8 4 5 3 1 1 1 2 3 6 10 13 14 15 14 13 15 18 19 19 21 24 29 32 37 47 50 52 54 58 59 60 63 64 65 66 68 68 62
9 24 38 8 13 10 6 8 9 10 24 36 9 7 11 10 11 11 10 8 8 5 3 2 3 6 9 12 13 15 15 15 16 18 23 29 30 31 39 43 46 48 50 50 44 45 47 51 55 60 61 61 61 60
8 19 13 9 8 6 6 4 17 36 27 29 25 24 20 21 17 16 12 10 6 5 6 8 9 10 11 12 15 21 23 25 30 35 40 43 47 49 52 53 52 51 51 52 53 52 46 47 47 46 47 49 51 53
14 9 14 14 10 9 32 40 41 41 27 22 22 23 28 22 22 20 14 10 10 11 11 13 17 20 20 21 23 22 23 30 35 37 41 47 49 50 51 52 52 52 52 53 55 56 56 55 53 52 51 50 47 46
9 9 13 9 10 19 15 7 10 13 12 12 13 13 16 12 9 8 12 13 9 12 18 21 21 20 20 25 26 30 34 36 38 39 40 42 44 45 46 46 47 47 48 47 47 48 48 49 49 48 49 47 44 43
12 20 23 19 13 11 10 12 10 11 16 11 11 10 9 9 9 7 10 15 15 19 22 23 21 17 21 19 22 27 29 32 34 35 37 39 41 44 45 45 46 46 46 44 43 44 45 45 45 44 43 42 40 36
Wind_Direction_850mb
201 202 201 204 200 202 216 231 243 247 249 233 231 240 250 267 283 295 302 299 271 248 124 255 318 329 341 346 3 321 328 7 4 46 69 305 63 48 74 341 97 131 125 169 78 69 291 170 101 156 228 101 158 169
200 204 205 207 207 210 222 231 237 242 241 239 231 250 264 273 284 289 275 280 249 258 114 111 100 67 45 15 344 2 28 340 26 347 49 111 62 50 135 109 275 79 173 175 169 201 322 174 307 246 146 135 130 134
199 203 206 206 207 211 227 233 240 235 238 246 253 262 274 286 299 278 239 229 204 121 137 174 134 93 31 5 3 344 13 352 1 3 13 172 81 10 63 311 180 315 209 89 60 228 241 177 127 130 139 132 124 120
199 201 205 208 208 214 225 231 235 234 240 250 260 266 271 277 277 222 209 181 233 126 114 243 202 36 30 18 24 339 337 349 345 4 42 71 83 16 323 255 169 197 123 169 292 312 348 213 149 134 131 139 141 144
198 196 199 207 210 214 221 227 232 235 242 255 254 259 255 222 196 209 206 217 217 227 147 165 153 41 78 111 70 19 8 348 343 40 30 59 23 7 335 14 281 185 180 144 199 194 164 177 181 170 160 163 177 189
194 195 196 203 209 213 219 223 228 234 244 225 230 245 206 185 180 183 229 216 198 170 137 143 161 61 104 97 54 13 340 12 42 39 71 67 56 21 80 238 263 199 168 92 105 141 118 129 174 186 183 188 213 250
194 196 196 197 202 204 214 219 215 216 220 217 213 212 198 197 198 219 228 177 172 170 160 82 354 71 94 107 5 26 48 59 62 58 40 6 44 356 141 234 284 153 195 212 172 143 135 144 149 144 152 187 235 237
194 195 193 193 197 192 186 188 182 193 200 204 183 196 221 206 208 236 228 168 167 172 154 109 335 1 222 2 72 14 19 38 38 46 359 19 329 355 262 251 263 243 280 266 212 213 185 181 179 211 235 243 254 264
192 193 191 189 184 179 179 185 189 185 171 184 193 185 159 179 201 228 192 173 183 213 143 103 134 206 174 63 32 37 17 39 7 51 29 350 315 237 229 251 22 15 154 118 191 206 218 223 224 242 266 276 270 274
191 192 191 188 184 178 182 190 178 161 174 173 154 162 192 162 182 147 148 176 191 192 115 94 127 119 137 97 60 46 27 54 47 296 328 75 268 267 260 270 257 258 183 208 176 203 207 202 215 232 250 251 263 278
189 189 190 188 182 176 187 174 159 173 168 161 166 153 156 142 145 176 198 83 339 46 90 120 142 144 161 118 157 56 181 15 78 279 95 324 285 258 320 312 276 235 226 221 188 121 140 149 161 206 267 288 294 295
188 188 188 184 179 177 185 166 179 178 166 160 147 125 145 178 130 88 281 323 71 218 150 141 134 128 140 142 117 48 124 40 229 333 69 290 253 320 341 6 244 196 169 173 178 187 208 239 270 298 309 306 308 318
184 183 184 180 177 179 183 171 190 175 154 142 152 145 150 183 41 142 220 286 300 178 174 158 140 137 128 123 80 84 79 200 314 45 231 235 289 332 57 79 96 134 155 165 175 188 75 57 44 14 352 329 319 314
183 180 180 176 175 179 175 185 188 179 177 202 171 180 155 269 245 189 188 195 170 169 156 143 118 122 115 68 85 87 235 63 44 23 242 255 308 112 122 111 102 102 103 101 93 78 58 30 356 333 318 307 301 296
179 178 175 174 175 177 182 184 182 183 211 233 193 217 205 202 192 178 175 146 140 150 148 123 91 126 30 90 47 112 42 294 200 230 233 357 70 114 128 117 112 105 94 78 47 3 337 324 315 309 301 300 302 304
174 173 179 174 173 182 177 173 180 198 266 235 230 117 157 140 194 176 179 164 153 155 156 129 110 65 351 129 96 211 122 214 241 219 130 97 89 107 122 125 117 102 56 346 331 323 317 312 310 309 310 312 307 306
172 171 176 170 168 176 169 171 162 201 239 237 246 216 201 138 165 165 160 162 161 161 185 121 92 200 113 45 297 194 201 223 131 149 135 106 76 107 169 201 247 293 306 313 311 307 306 307 307 309 307 306 307 314
172 173 168 170 173 167 161 157 179 211 238 240 236 201 194 201 168 165 167 166 161 189 167 186 133 116 171 154 277 240 225 86 111 134 153 256 1 36 329 301 289 297 300 297 296 300 303 301 302 303 304 311 315 322
170 168 171 179 174 154 135 173 196 218 219 208 205 179 169 179 187 177 171 168 164 162 159 158 90 192 225 209 123 111 95 76 58 1 332 317 313 302 296 291 286 284 286 292 298 300 300 302 302 300 307 313 316 327
166 171 176 176 165 156 142 151 181 217 198 188 173 167 159 151 152 159 162 168 167 173 176 170 209 202 84 111 108 99 24 357 331 319 313 298 294 299 296 295 292 294 299 302 304 307 307 304 301 305 310 317 329 335
164 172 172 169 158 136 155 168 171 179 163 160 158 147 121 131 124 156 161 163 185 231 248 184 124 139 145 149 44 345 309 315 314 308 302 299 301 296 297 295 300 304 309 311 311 313 309 303 303 303 313 328 325 321
159 168 162 168 169 172 170 181 174 153 153 142 147 143 134 138 139 155 168 200 230 262 213 126 127 136 257 303 303 296 296 291 289 288 289 294 300 305 305 304 303 305 310 302 306 311 310 304 304 306 309 309 306 306
160 159 161 147 148 166 157 159 141 133 118 163 143 110 79 126 157 149 188 222 193 192 194 214 260 279 278 279 291 297 304 307 303 299 296 295 296 301 305 306 307 307 308 301 304 307 307 304 304 305 304 304 306 311
155 147 140 162 169 125 143 133 130 114 113 147 148 116 157 129 154 187 228 181 173 176 181 185 139 201 206 259 281 303 307 308 307 304 304 304 306 299 299 303 311 318 324 323 314 310 308 309 310 312 317 319 319 318
136 170 182 156 140 124 117 129 101 100 126 167 119 139 172 147 143 193 222 156 183 196 212 277 316 333 341 329 322 318 317 321 322 313 310 309 311 314 310 309 310 317 319 322 319 320 320 320 318 318 318 317 315 313
178 179 182 142 159 134 164 133 174 156 129 129 105 136 145 157 165 218 143 247 227 248 296 308 315 311 310 315 319 313 316 326 331 331 326 331 341 348 343 319 319 325 323 325 324 321 319 318 317 315 314 314 314 312
180 147 124 124 134 130 100 87 127 116 140 160 167 167 167 168 216 131 187 284 218 236 259 292 311 315 317 322 327 330 337 339 340 338 334 333 336 336 332 328 327 325 323 321 319 317 316 314 313 312 311 311 312 311
139 147 136 143 125 125 121 113 142 173 164 156 142 167 176 190 150 138 138 217 108 183 267 301 313 322 327 325 328 333 335 335 335 337 327 322 326 324 322 318 313 313 313 316 315 315 314 313 313 315 318 319 320 321
106 128 136 76 105 109 112 154 157 129 143 169 124 115 119 95 103 115 113 103 90 91 81 59 350 339 335 333 335 329 320 322 320 316 317 319 317 315 314 317 318 318 317 317 318 319 320 320 321 320 320 321 321 320
120 135 106 77 77 82 19 123 133 142 139 140 122 116 101 101 98 101 96 95 89 59 32 10 359 352 347 346 351 348 349 349 345 344 341 337 335 335 337 336 335 335 334 332 331 330 329 325 326 325 323 323 324 323
113 100 83 71 77 60 113 112 115 118 116 94 102 119 122 125 115 90 79 70 46 29 14 3 357 355 356 355 357 1 -0 351 349 345 340 339 339 338 338 339 339 338 339 339 339 340 338 336 336 335 335 334 334 330
57 66 122 110 120 135 114 115 85 78 79 76 72 89 108 111 101 110 55 43 33 15 8 3 360 3 5 4 3 0 357 353 350 346 343 342 343 342 342 343 345 344 344 345 343 340 340 338 339 339 337 337 337 334
76 79 97 102 117 143 132 108 70 81 61 72 66 73 79 90 109 102 48 16 14 17 12 9 8 12 10 11 9 4 1 356 353 352 351 351 351 352 352 353 354 354 353 350 348 346 346 345 344 343 341 340 340 341